Probability
0 0 0 0 0 0 0 0 0 0 0 0 0 0 0 0 0 0 0 0 0 0 0 0 0 0 0 0 0 0 0 0 0 0 0 0 0 0 0 0 0 0 0
0 0 0 0 0 0 0 0 0 0 0 0 0 0 0 0 0 0 0 0 0 0 0 0 0 0 0 0 0 0 0 0 0 0 0 0 0 0 0 0 0 0 0
0 0 0 0 0 0 0 0 0 0 0 0 0 0 0 0 0 0 0 0 0 0 0 0 0 0 0 0 0 0 0 0 0 0 0 0 0 0 0 0 0 0 0
0 0 0 0 0 0 0 0 0 0 0 0 0 0 0 0 0 0 0 0 0 0 0 0 0 0 0 0 0 0 0 0 0 0 0 0 0 0 0 0 0 0 0
0 0 0 0 0 0 0 0 0 0 0 0 0 0 0 0 0 0 0 0 0 0 0 0 0 0 0 0 0 0 0 0 0 0 0 0 0 0 0 0 0 0 0
0 0 0 0 0 0 0 0 0 0 0 0 0 0 0 0 0 0 0 0 0 0 0 0 0 0 0 0 0 0 0 0 0 0 0 0 0 0 0 0 0 0 0
0 0 0 0 0 0 0 0 0 0 0 0 0 0 0 0 0 0 0 0 0 0 0 0 0 0 0 0 0 0 0 0 0 0 0 0 0 0 0 0 0 0 0
0 0 0 0 0 0 0 0 0 0 0 0 0 0 0 0 0 0 0 0 0 0 0 0 0 0 0 0 0 0 0 0 0 0 0 0 0 0 0 0 0 0 0
0 0 0 0 0 0 0 0 0 0 0 0 0 0 0 0 0 0 0 0 0 0 0 0 0 0 0 0 0 0 0 0 0 0 0 0 0 0 0 0 0 0 0
0 0 0 0 0 0 0 0 0 0 0 0 0 0 0 0 0 0 0 0 0 0 0 0 0 0 0 0 0 0 0 0 0 0 0 0 0 0 0 0 0 0 0
0 0 0 0 0 0 0 0 0 0 0 0 0 0 0 0 0 0 0 0 0 0 0 0 0 0 0 0 0 0 0 0 0 0 0 0 0 0 0 0 0 0 0
0 0 0 0 0 0 0 0 0 0 0 0 0 0 0 0 0 0 0 0 0 0 0 0 0 0 0 0 0 0 0 0 0 0 0 0 0 0 0 0 0 0 0
0 0 0 0 0 0 0 0 0 0 0 0 0 0 0 0 0 0 0 0 0 0 0 0 0 0 0 0 0 0 0 0 0 0 0 0 0 0 0 0 0 0 0
0 0 0 0 0 0 0 0 0 0 0 0 0 0 0 0 0 0 0 0 0 0 0 0 0 0 0 0 0 0 0 0 0 0 0 0 0 0 0 0 0 0 0
0 0 0 0 0 0 0 0 0 0 0 0 0 0 0 0 0 0 0 0 0 0 0 0 0 0 0 0 0 0 0 0 0 0 0 0 0 0 0 0 0 0 0
0 0 0 0 0 0 0 0 0 0 0 0 0 0 0 0 0 0 0 0 0 0 0 0 0 0 0 0 0 0 0 0 0 0 0 0 0 0 0 0 0 0 0
0 0 0 0 0 0 0 0 0 0 0 0 0 0 0 0 0 0 0 0 0 0 0 0 0 0 0 0 0 0 0 0 0 0 0 0 0 0 0 0 0 0 0
0 0 0 0 0 0 0 0 0 0 0 0 0 0 0 0 0 0 0 0 0 0 0 0 0 0 0 0 0 0 0 0 0 0 0 0 0 0 0 0 0 0 0
0 0 0 0 0 0 0 0 0 0 0 0 0 0 0 0 0 0 0 0 0 0 0 0 0 0 0 0 0 0 0 0 0 0 0 0 0 0 0 0 0 0 0
0 0 0 0 0 0 0 0 0 0 0 0 0 0 0 0 0 0 0 0 0 0 0 0 0 0 0 0 0 0 0 0 0 0 0 0 0 0 0 0 0 0 0
0 0 0 0 0 0 0 0 0 0 0 0 0 0 0 0 0 0 0 0 0 0 0 0 0 0 0 0 0 0 0 0 0 0 0 0 0 0 0 0 0 0 0
0 0 0 0 0 0 0 0 0 0 0 0 0 0 0 0 0 0 0 0 0 0 0 0 0 0 0 0 0 0 0 0 0 0 0 0 0 0 0 0 0 0 0
0 0 0 0 0 0 0 0 0 0 0 0 0 0 0 0 0 0 0 0 0 0 0 0 0 0 0 0 0 0 0 0 0 0 0 0 0 0 0 0 0 0 0
0 0 0 0 0 0 0 0 0 0 0 0 0 0 0 0 0 0 0 0 0 0 0 0 0 0 0 0 0 0 0 0 0 0 0 0 0 0 0 0 0 0 0
0 0 0 0 0 0 0 0 0 0 0 0 0 0 0 0 0 0 0 0 0 0 0 0 0 0 0 0 0 0 0 0 0 0 0 0 0 0 0 0 0 0 0
0 0 0 0 0 0 0 0 0 0 0 0 0 0 0 0 0 0 0 0 0 0 0 0 0 0 0 0 0 0 0 0 0 0 0 0 0 0 0 0 0 0 0
Wind_Speed
5 5 4 4 4 4 4 4 3 4 4 4 4 5 5 4 4 4 3 4 5 7 8 9 9 8 8 8 8 8 8 8 7 7 7 6 6 5 5 4 4 3 3
5 5 5 5 4 4 4 4 4 4 4 4 5 6 6 6 6 6 5 5 8 9 11 12 12 12 12 12 11 11 11 11 10 10 9 9 8 8 7 6 5 5 4
7 6 5 5 5 5 5 4 5 4 4 5 6 7 6 7 7 8 8 7 7 10 12 15 15 15 15 15 15 15 14 14 13 13 13 12 12 11 10 9 9 8 7
8 6 5 6 5 5 5 5 5 5 5 5 6 6 6 6 8 9 8 9 8 8 11 16 17 18 18 18 18 18 18 17 17 17 16 16 15 14 14 13 12 11 10
9 8 6 5 6 5 5 5 5 6 6 7 6 6 6 7 8 9 11 11 11 11 10 11 15 16 20 21 21 21 21 20 20 20 19 19 18 17 17 16 15 14 13
10 9 7 7 7 6 6 6 7 6 6 5 5 7 7 8 8 10 12 11 11 13 13 12 10 11 19 23 24 24 23 23 23 22 22 22 21 21 20 19 18 17 16
11 10 7 8 8 8 9 9 7 7 6 4 4 6 8 11 12 11 11 11 13 13 13 13 11 10 10 20 25 27 27 26 26 25 25 25 24 24 23 22 21 20 19
11 9 11 8 9 8 9 9 8 5 5 6 5 4 6 7 10 11 11 11 13 11 12 14 13 13 12 9 15 25 28 29 28 28 26 26 26 26 26 25 24 23 22
11 10 11 10 9 9 9 11 11 9 7 7 8 7 5 7 6 4 9 9 10 10 11 11 14 14 14 12 12 19 27 30 30 30 29 28 27 27 28 27 27 26 25
10 11 11 11 10 9 10 10 10 10 8 7 7 9 10 5 5 7 5 6 9 11 12 10 11 13 14 12 13 19 23 27 29 30 30 30 29 29 28 28 28 27 26
8 9 9 9 9 9 10 10 10 11 9 9 7 6 8 8 9 8 11 10 8 8 10 11 11 11 13 13 13 17 23 27 28 28 30 30 31 31 30 29 28 28 27
5 8 8 8 9 8 9 10 10 12 10 11 9 7 7 7 8 9 12 12 11 9 9 9 10 11 11 12 15 19 22 26 28 28 29 30 31 31 31 30 29 28 27
4 5 6 7 7 8 8 8 9 10 11 12 11 9 9 10 8 8 10 13 13 10 8 7 10 11 11 11 11 17 20 25 28 28 28 29 30 30 31 31 30 29 27
3 4 5 6 7 8 7 8 8 10 9 11 12 12 10 9 9 9 9 10 14 13 10 10 8 10 10 10 12 16 14 20 25 27 28 28 29 30 30 30 30 29 27
3 4 5 6 7 7 8 8 8 9 9 10 11 11 11 9 9 9 9 9 10 15 17 10 5 7 8 8 11 11 13 16 22 25 26 27 27 28 28 29 29 28 27
3 4 5 5 6 7 7 7 8 9 10 10 9 11 11 9 9 8 9 9 10 12 17 11 8 6 7 7 10 11 13 15 18 22 24 25 25 26 26 27 26 26 25
4 4 5 5 6 7 7 7 8 9 11 11 11 11 13 11 10 8 8 9 10 10 16 16 10 8 7 8 8 9 9 10 10 17 22 23 24 24 24 24 24 24 23
4 4 5 5 6 6 7 8 9 9 10 11 11 12 13 10 11 10 9 10 10 10 12 18 13 8 8 8 9 9 8 8 9 14 19 21 22 22 22 22 21 20 20
4 4 5 5 6 6 7 8 8 9 10 11 11 12 12 10 11 9 9 10 9 8 10 12 14 9 7 4 6 6 8 8 8 10 15 18 20 21 21 20 19 18 17
5 6 6 6 6 7 7 7 8 9 10 10 10 11 11 11 11 10 9 9 8 9 9 10 12 10 6 3 3 6 7 6 7 5 10 11 14 17 18 17 16 14 14
6 6 6 6 7 6 6 8 9 9 10 11 10 10 11 11 11 10 8 9 8 8 8 9 10 9 7 3 4 4 7 6 5 4 5 6 6 6 7 11 12 11 12
6 6 6 7 7 6 9 12 11 10 9 10 10 10 9 9 10 12 14 14 12 10 9 8 9 10 10 7 5 4 5 5 4 2 3 3 2 3 3 2 6 10 11
7 7 7 7 8 9 12 13 12 10 10 10 10 9 7 6 8 8 10 11 11 12 13 10 11 11 10 7 6 7 5 5 4 0 1 2 1 2 1 2 6 7 8
7 7 8 9 9 9 12 13 13 10 9 9 9 9 9 9 7 8 7 7 7 7 7 6 7 8 7 6 5 5 4 2 1 1 1 1 0 0 1 1 3 5 7
8 8 8 9 9 10 12 13 13 7 7 9 8 8 8 9 9 10 7 7 7 5 6 7 7 7 8 7 5 2 1 1 0 1 1 1 1 1 2 2 1 2 3
8 8 8 8 9 9 12 13 12 6 7 7 6 6 6 8 9 9 5 5 6 5 3 4 4 4 4 4 5 3 1 1 1 1 1 1 1 1 1 2 3 2 1
Wind_Direction
184 181 180 182 185 182 185 188 190 189 198 202 212 219 223 231 236 235 214 208 242 239 229 222 218 217 218 217 216 213 211 207 205 204 202 198 194 190 184 179 171 157 143
194 191 191 193 196 198 198 202 202 205 212 215 220 225 232 233 235 238 245 224 230 241 243 238 232 227 226 225 225 224 223 221 218 217 216 215 213 212 209 207 204 199 196
206 203 203 202 201 199 198 202 206 218 223 224 229 230 235 238 241 240 242 246 238 234 242 246 244 239 235 232 230 228 228 227 225 224 224 224 222 221 220 219 218 217 216
213 211 213 213 201 196 200 205 204 213 223 228 233 230 233 237 241 243 243 243 245 243 237 240 246 246 243 239 236 234 232 230 228 227 226 227 228 227 226 225 224 224 224
213 215 219 217 200 199 206 207 212 219 226 229 237 241 239 240 241 240 242 243 243 245 245 241 242 248 249 246 244 242 238 235 232 229 228 228 229 230 230 229 228 228 228
211 215 220 217 202 204 210 212 218 222 237 243 245 251 250 247 245 244 245 244 243 243 244 246 244 244 246 248 249 249 247 243 239 234 231 230 230 230 230 230 230 230 230
209 212 216 216 207 213 217 214 216 223 230 223 242 261 254 244 244 243 242 244 243 242 242 243 242 244 247 247 249 250 251 250 247 242 237 234 232 231 231 230 230 230 231
210 209 215 216 211 217 222 216 207 212 220 194 211 248 277 263 235 234 237 239 245 244 242 241 242 242 244 243 246 248 251 253 253 251 246 241 237 235 233 232 231 231 231
214 213 217 218 216 216 221 218 210 211 223 212 212 218 242 266 296 237 236 239 242 242 243 242 241 243 244 245 247 248 249 252 254 255 253 250 246 241 237 235 233 232 231
221 220 224 224 223 221 227 224 216 218 225 226 217 228 239 264 278 287 250 244 246 245 245 244 245 245 244 245 244 245 247 249 251 254 255 255 253 250 246 241 238 235 232
227 229 229 230 230 228 230 228 222 220 221 230 221 217 232 243 243 257 277 274 254 240 244 246 248 248 246 243 244 244 244 247 250 252 253 254 254 254 251 248 245 241 237
236 238 240 241 240 238 236 234 230 227 226 231 234 225 222 229 232 237 262 276 277 268 248 241 245 248 248 246 245 244 244 248 251 251 252 253 253 253 253 251 249 246 242
246 250 248 249 249 248 248 244 238 236 233 233 235 237 234 239 245 249 262 278 282 280 262 245 242 245 245 246 247 242 244 248 252 253 253 253 253 253 253 252 250 249 246
270 280 273 268 266 263 259 254 251 248 244 242 242 242 245 244 240 238 246 269 283 283 266 254 234 232 240 241 246 245 249 245 250 253 254 254 254 254 254 252 250 248 247
308 298 289 283 280 276 271 267 260 258 255 251 250 247 247 249 244 241 239 239 260 283 284 276 254 223 232 239 244 247 248 247 247 251 254 255 255 255 255 253 251 248 245
327 313 304 295 290 286 279 272 268 266 264 261 259 257 253 251 248 242 239 238 237 257 277 280 271 249 225 234 242 247 251 252 251 253 255 256 256 256 256 255 252 249 245
338 324 314 305 297 292 287 278 272 274 271 270 268 265 264 262 259 252 245 243 242 243 265 279 276 272 248 244 250 248 251 253 254 250 253 255 256 256 256 255 253 249 244
345 331 320 309 303 299 294 286 282 279 276 275 275 274 272 271 266 263 258 253 251 245 256 274 279 276 260 250 255 256 254 251 253 254 254 255 256 256 255 254 251 246 238
348 340 330 319 312 305 299 291 287 284 281 279 279 278 278 276 272 268 266 264 262 258 255 267 277 279 272 260 259 260 259 259 257 257 258 257 256 256 254 252 248 242 233
350 343 333 322 313 307 300 298 295 290 286 283 280 278 277 274 272 272 270 268 268 267 264 267 274 280 276 264 253 265 267 256 256 252 254 254 255 255 254 250 246 235 223
343 334 327 321 315 308 303 306 302 293 289 287 283 279 277 276 273 272 271 274 272 270 270 270 275 282 281 272 264 259 270 278 263 236 250 249 250 250 247 245 237 221 208
334 328 322 317 314 308 310 307 303 297 291 288 288 287 284 278 275 272 269 269 268 269 273 273 277 278 284 284 283 273 274 276 272 217 240 254 234 245 246 239 218 206 197
328 323 319 315 309 306 310 308 304 298 291 288 289 290 289 283 279 280 280 278 275 271 268 272 277 281 289 292 288 278 269 268 271 262 224 255 227 241 216 208 201 194 190
318 314 312 309 306 305 310 309 309 299 292 290 290 289 290 292 289 286 285 282 280 279 279 276 276 285 290 293 280 275 274 265 34 99 184 259 90 20 64 114 188 189 190
310 307 303 303 302 303 309 310 311 301 294 294 294 292 290 291 295 293 288 284 287 290 299 293 291 300 310 316 318 305 255 207 307 103 77 348 52 37 43 43 61 167 182
299 301 297 296 294 295 302 306 308 297 294 296 297 293 289 293 301 301 291 287 290 303 314 319 323 334 339 347 350 336 315 288 30 97 89 52 72 66 62 48 32 38 89